Location: Krakow
(50.0830°N, 19.9170°E)
Time: 17:43:41
(UTC+01:00)

Vanguard 1 Rocket - Pass Details

Date: 14 December 2023
Orbit: 653 x 4219 km, 34.3° (Epoch: 29 February)

Event Time Altitude Azimuth Distance (km) Brightness Sun altitude
Rises 02:07:50 0° 227° (SW) 8,250 - -49.9°
Reaches altitude 10° 02:13:56 10° 221° (SW) 7,374 - -49.0°
Exits shadow 02:31:13 38° 186° (S) 5,168 10.8 -46.5°
Maximum altitude 02:36:46 42° 161° (SSE) 4,756 10.8 -45.7°
Drops below altitude 10° 02:53:31 10° 99° (E) 5,564 11.9 -43.1°
Sets 02:57:16 0° 92° (E) 6,164 12.4 -42.5°
